Date,TemperatureHighF,TemperatureAvgF,TemperatureLowF,DewpointHighF,DewpointAvgF,DewpointLowF,HumidityHigh,HumidityAvg,HumidityLow,PressureMaxIn,PressureMinIn,WindSpeedMaxMPH,WindSpeedAvgMPH,GustSpeedMaxMPH,PrecipitationSumIn
2013-1-1,58.9,27.5,40.1,53.8,-20.2,-99.9,100,54,82,30.09,29.88,5,2,16,0.59
2013-1-2,39.5,8.8,36.5,38.8,-77.0,-99.9,98,18,97,30.19,30.06,4,1,8,0.00
2013-1-3,-200.0,0.0,200.0,-99.9,-99.9,-99.9,0,0,100,30.34,30.18,0,0,0,0.00
2013-1-4,-200.0,0.0,200.0,-99.9,-99.9,-99.9,0,0,100,30.41,30.30,0,0,0,0.00
2013-1-5,42.5,12.3,41.9,41.3,-58.8,-99.9,97,28,95,30.33,30.20,0,0,3,0.00
2013-1-6,50.5,42.1,30.4,43.0,39.0,28.9,99,90,69,30.28,30.18,3,1,11,0.00
2013-1-7,57.8,39.2,26.9,39.5,32.7,25.7,97,81,41,30.32,30.14,3,0,10,0.01
2013-1-8,62.0,49.4,35.0,50.9,43.1,33.2,94,80,61,30.18,30.05,6,1,12,0.07
2013-1-9,62.0,57.6,52.9,62.0,57.3,51.2,100,99,94,30.17,30.09,5,3,13,0.23
2013-1-10,67.1,63.8,57.6,67.1,63.4,56.8,100,99,95,30.12,29.82,8,2,24,0.50
2013-1-11,67.9,64.0,59.2,67.0,63.2,59.2,100,97,91,30.01,29.91,2,1,11,0.05
2013-1-12,77.2,70.8,67.6,68.8,65.9,63.0,100,86,64,29.94,29.77,5,2,19,0.02
2013-1-13,73.3,57.7,40.3,65.7,53.6,37.6,95,87,77,30.09,29.70,5,2,19,0.44
2013-1-14,41.2,36.5,32.4,38.4,34.4,30.7,96,92,85,30.18,30.08,5,2,16,1.71
2013-1-15,37.2,35.3,34.1,36.7,34.4,33.3,99,97,95,30.09,29.95,3,1,10,1.75
2013-1-16,34.6,33.9,33.1,34.6,33.8,33.1,100,100,99,30.09,29.99,3,2,13,0.61
2013-1-17,49.4,37.4,31.2,39.3,34.4,31.2,100,90,63,30.38,30.04,6,2,18,0.25
2013-1-18,57.2,38.6,26.1,37.4,31.3,24.9,97,79,33,30.51,30.32,2,0,10,0.01
2013-1-19,60.5,41.3,27.3,44.1,35.0,26.1,97,81,48,30.32,30.16,4,1,13,0.01
2013-1-20,65.0,44.5,29.4,49.3,38.1,28.1,100,82,43,30.20,30.07,2,0,8,0.00
2013-1-21,56.7,41.6,30.9,45.7,34.1,28.4,98,78,44,30.20,30.07,4,1,16,0.01
2013-1-22,50.5,40.8,31.3,35.4,27.5,21.6,90,61,37,30.33,30.20,4,1,12,0.00
2013-1-23,69.3,49.7,34.3,46.3,41.2,31.7,93,76,39,30.30,30.15,5,1,16,0.00
2013-1-24,60.1,52.2,41.9,56.9,49.9,39.7,98,92,85,30.25,30.12,3,0,11,0.01
2013-1-25,71.6,59.7,52.0,57.6,54.1,50.0,95,83,59,30.12,30.00,8,2,21,0.01
2013-1-26,51.9,48.6,44.3,49.9,44.6,40.7,96,86,74,30.21,30.11,3,1,10,0.02
2013-1-27,72.7,58.6,46.0,57.9,50.6,42.2,94,76,55,30.21,30.09,6,1,17,0.00
2013-1-28,70.6,62.8,57.2,61.5,57.9,53.3,93,84,72,30.17,30.02,4,1,17,0.00
2013-1-29,78.1,71.0,61.5,65.1,63.2,59.2,94,78,61,30.02,29.60,9,4,25,0.00
2013-1-30,73.0,53.6,38.9,64.5,44.9,28.7,95,73,54,30.03,29.53,9,5,30,0.66
2013-1-31,59.3,42.4,29.0,34.8,30.0,25.3,94,67,28,30.19,30.04,6,2,18,0.00
2013-2-1,46.2,46.2,46.2,30.9,30.9,30.9,55,55,55,30.18,30.18,2,2,10,0.00
2013-2-2,64.0,45.8,30.7,48.5,28.9,-99.9,93,61,48,30.27,30.08,5,1,16,0.00
2013-2-3,64.2,44.5,29.8,46.4,30.7,-99.9,98,70,27,30.18,30.06,7,2,18,0.00
2013-2-4,59.2,47.4,35.6,42.3,36.4,32.7,90,68,44,30.06,29.88,3,1,10,0.00
2013-2-5,61.6,52.1,43.5,55.4,49.1,40.7,97,90,76,29.99,29.86,2,0,7,0.00
2013-2-6,68.1,53.6,37.9,59.4,49.1,37.9,100,86,58,30.08,29.93,4,1,12,0.09
2013-2-7,68.6,57.3,48.8,60.1,55.0,47.4,100,92,66,29.94,29.81,2,0,7,0.00
2013-2-8,57.2,51.9,40.6,57.2,48.8,36.4,100,90,69,30.16,29.85,4,1,18,0.00
2013-2-9,62.9,46.8,29.7,42.1,36.0,28.2,95,69,39,30.20,30.00,5,1,13,0.01
2013-2-10,60.7,54.1,52.8,59.9,45.3,-99.9,100,85,65,29.99,29.76,6,2,29,2.04
2013-2-11,58.6,48.7,49.1,58.6,39.5,-99.9,100,92,100,30.12,29.92,4,0,8,0.42
2013-2-12,49.2,46.6,46.1,49.2,41.4,-99.9,100,98,100,30.06,29.71,7,2,17,1.65
2013-2-13,49.6,45.3,34.7,48.2,43.0,33.2,100,92,75,30.01,29.73,7,3,19,0.00
2013-2-14,34.0,32.1,30.6,32.5,30.8,29.3,96,95,94,30.01,29.99,0,0,0,0.00
2013-2-15,62.1,45.7,30.9,44.3,35.5,29.7,98,71,37,30.11,30.02,6,2,19,0.01
2013-2-16,47.0,39.6,27.0,31.1,23.4,16.8,86,55,30,30.23,30.11,7,3,21,0.00
2013-2-17,59.2,42.7,25.7,35.2,27.3,21.3,91,59,30,30.26,30.08,6,2,18,0.00
2013-2-18,65.3,49.2,42.3,48.2,39.1,34.2,76,68,54,30.11,29.94,7,2,21,0.00
2013-2-19,56.3,46.2,32.8,54.2,33.0,-99.9,96,69,36,30.21,29.86,6,2,19,0.17
2013-2-20,52.0,41.2,31.0,30.6,25.3,17.9,91,57,27,30.23,30.02,5,2,16,0.00
2013-2-21,55.9,26.0,40.3,46.6,-23.4,-99.9,84,34,47,30.02,29.67,6,2,17,0.04
2013-2-22,65.8,51.4,47.0,58.1,44.4,-99.9,100,87,59,29.97,29.82,3,1,11,0.27
2013-2-23,58.0,46.6,36.5,47.5,41.8,34.4,98,85,60,29.93,29.83,3,1,12,0.00
2013-2-24,67.3,49.3,30.7,43.4,37.3,29.4,96,68,34,29.97,29.75,4,2,16,0.00
2013-2-25,61.6,56.5,53.5,59.6,48.1,-99.9,97,78,55,29.71,29.31,8,4,19,0.45
2013-2-26,54.1,44.7,33.5,53.3,36.4,31.4,97,73,63,29.83,29.38,7,4,22,0.00
2013-2-27,60.4,44.1,30.3,40.4,35.5,29.0,97,75,41,29.96,29.83,6,2,17,0.01
2013-2-28,52.5,41.6,32.1,35.3,31.3,28.5,94,69,43,30.06,29.95,6,2,18,0.00
2013-3-1,44.1,35.9,27.0,33.2,27.8,24.6,95,74,53,30.11,30.02,5,2,19,0.00
2013-3-2,37.9,32.6,25.1,29.1,25.0,19.5,93,74,59,30.19,30.08,5,2,16,0.00
2013-3-3,52.5,35.1,20.5,29.9,22.8,18.0,93,66,29,30.21,30.02,4,1,12,0.00
2013-3-4,70.3,52.5,30.6,52.4,39.4,27.5,89,65,35,30.02,29.76,9,4,28,0.00
2013-3-5,66.8,55.1,42.5,59.0,46.5,25.4,88,73,48,30.13,29.77,9,4,26,0.05
2013-3-6,51.4,42.3,31.8,30.2,27.4,24.8,87,57,41,30.27,30.13,6,2,18,0.00
2013-3-7,60.5,42.9,30.0,36.7,31.6,27.5,93,69,32,30.30,30.17,3,1,11,0.00
2013-3-8,70.9,51.3,31.3,45.7,36.2,29.8,95,63,23,30.26,30.09,2,1,12,0.00
2013-3-9,75.3,61.1,48.6,53.1,41.3,31.9,76,51,22,30.10,29.87,7,2,19,0.00
2013-3-10,74.4,57.3,55.0,60.5,40.9,-99.9,96,71,59,29.90,29.72,7,3,25,0.81
2013-3-11,54.4,45.1,37.8,51.5,34.8,-99.9,97,76,52,29.96,29.78,7,2,22,0.45
2013-3-12,61.8,45.3,30.9,42.7,33.8,29.5,97,70,30,30.15,29.96,5,1,14,0.00
2013-3-13,39.2,37.5,36.2,35.7,34.9,34.1,92,90,87,30.16,30.15,0,0,1,0.00
2013-3-14,66.6,46.9,30.1,41.1,32.0,27.3,94,63,26,30.37,30.17,4,1,11,0.00
2013-3-15,78.1,58.2,39.5,47.3,41.9,37.4,94,61,28,30.16,29.93,7,3,18,0.01
2013-3-16,77.9,64.8,53.1,54.5,49.9,45.4,87,61,34,29.96,29.80,8,4,26,0.02
2013-3-17,77.9,63.3,47.9,58.7,54.0,46.3,96,74,48,29.89,29.68,5,1,14,0.00
2013-3-18,80.1,66.6,53.2,64.7,59.0,47.8,88,77,53,29.90,29.64,7,3,22,0.08
2013-3-19,69.3,53.1,41.2,47.0,31.8,-99.9,93,56,22,30.04,29.92,6,2,16,0.01
2013-3-20,65.0,53.7,41.1,34.9,29.3,22.2,74,42,20,30.13,29.99,6,2,24,0.01
2013-3-21,40.1,38.1,36.8,34.1,33.6,33.3,87,84,79,29.99,29.97,0,0,0,0.00
2013-4-3,53.9,47.4,44.3,45.1,41.3,35.2,94,81,51,30.03,29.93,8,3,18,0.37
2013-4-4,51.3,48.0,45.1,49.4,46.6,42.9,97,95,91,29.97,29.86,3,1,12,0.02
2013-4-5,67.3,52.7,44.5,50.6,45.8,42.4,98,80,45,30.11,29.96,3,1,13,0.01
2013-4-6,75.3,57.3,39.9,51.8,44.0,38.5,97,67,32,30.06,29.91,6,2,17,0.01
2013-4-7,76.0,63.2,48.2,56.2,52.5,46.3,95,71,46,30.02,29.87,7,2,20,0.01
2013-4-8,82.0,68.6,53.9,61.9,58.3,51.9,95,72,46,29.94,29.81,7,2,22,0.00
2013-4-9,87.0,74.7,66.8,68.1,65.6,62.1,90,74,52,29.92,29.82,3,0,16,0.00
2013-4-10,83.2,75.0,69.3,67.3,65.5,64.4,85,73,57,29.88,29.69,0,0,0,0.00
2013-4-11,72.0,59.6,47.4,67.5,56.4,43.1,96,89,78,29.78,29.56,2,0,11,0.80
2013-4-12,71.3,54.5,39.2,49.3,43.2,37.9,97,71,33,29.93,29.79,4,1,14,0.01
2013-4-13,79.0,60.8,42.6,53.8,48.0,41.3,96,69,30,29.97,29.83,2,0,11,0.01
2013-4-14,70.9,62.0,53.9,60.6,55.8,49.5,94,81,66,29.84,29.67,9,1,22,0.58
2013-4-15,83.8,67.7,53.8,69.1,58.7,-99.9,97,81,52,29.87,29.73,4,1,16,0.01
2013-4-16,81.6,74.8,71.8,70.3,69.1,68.3,90,83,65,29.99,29.86,3,0,14,0.00
2013-4-17,86.5,62.0,68.6,75.9,33.5,-99.9,97,68,54,30.01,29.83,0,0,0,0.00
2013-4-18,83.0,72.8,55.7,68.1,64.8,53.7,93,77,59,29.84,29.57,0,0,0,0.79
2013-4-19,57.2,49.4,40.9,50.8,37.3,-99.9,94,71,46,30.11,29.79,5,3,18,0.29
2013-4-20,68.9,52.3,35.6,50.2,40.0,34.0,96,69,33,30.21,30.07,4,1,12,0.00
2013-4-21,72.5,56.7,41.9,51.0,43.2,38.0,95,66,31,30.20,30.06,5,1,13,0.00
2013-4-22,77.4,60.7,42.9,56.3,49.5,41.3,95,71,40,30.09,29.93,3,1,13,0.01
2013-4-23,79.2,69.1,59.0,63.9,60.7,55.4,88,76,58,30.01,29.86,3,1,14,0.00
2013-4-24,69.4,58.6,49.9,63.4,53.4,43.8,94,83,71,30.19,29.87,6,3,21,0.77
2013-4-25,71.1,55.2,41.6,50.3,42.3,36.6,93,66,29,30.29,30.19,5,1,14,0.00
2013-4-26,79.2,62.3,44.1,61.3,49.7,42.5,94,68,39,30.25,30.08,4,1,13,0.00
2013-4-27,80.5,70.8,60.7,67.3,63.0,57.4,93,77,59,30.08,29.89,5,2,17,0.02
2013-4-28,73.2,67.0,57.5,67.2,63.2,55.8,94,88,79,29.91,29.85,5,1,16,0.45
2013-4-29,80.7,66.9,56.2,67.6,60.9,54.8,100,84,44,29.93,29.81,2,0,11,0.01
2013-4-30,58.7,57.2,55.7,56.7,55.8,54.6,96,95,93,29.84,29.82,0,0,0,0.00
2013-5-1,67.8,64.5,62.4,67.8,63.9,61.5,100,98,91,29.90,29.81,7,2,21,5.78
2013-5-2,68.1,64.5,61.3,64.7,62.8,60.7,99,95,87,29.93,29.84,4,2,14,0.53
2013-5-3,64.3,52.7,39.9,63.7,52.0,38.6,100,98,90,29.96,29.81,5,2,19,1.04
2013-5-4,67.8,51.6,36.2,52.8,43.7,35.4,100,78,37,29.95,29.77,4,1,18,0.06
2013-5-5,58.4,50.3,44.9,48.2,44.9,41.9,95,83,64,29.91,29.79,5,2,19,0.00
2013-5-6,65.6,57.1,49.2,57.9,51.7,46.7,93,83,69,29.91,29.84,4,1,14,0.02
2013-5-7,74.7,61.9,48.5,60.2,54.8,47.4,98,80,55,29.96,29.87,2,1,13,0.01
2013-5-8,82.6,66.1,50.4,65.3,57.3,49.3,98,77,44,30.03,29.94,2,0,10,0.00
2013-5-9,82.0,69.8,55.4,66.9,61.3,54.6,99,77,51,30.03,29.91,5,1,14,0.00
2013-5-10,76.8,68.6,63.2,66.1,63.9,61.7,99,86,66,29.96,29.81,5,1,17,1.54
2013-5-11,78.3,68.4,57.5,67.8,63.1,54.6,100,85,59,29.98,29.87,4,1,13,0.01
2013-5-12,72.5,60.4,47.9,54.9,49.1,43.4,97,70,38,30.12,29.98,4,0,12,0.00
2013-5-13,77.4,60.6,42.5,59.0,47.2,41.0,96,67,32,30.22,30.09,2,0,8,0.00
2013-5-14,84.9,67.2,50.5,61.1,54.1,49.1,97,69,32,30.16,30.02,4,1,16,0.00
2013-5-15,58.6,57.5,56.6,56.0,55.3,54.6,93,92,91,30.06,30.05,0,0,0,0.00
2013-5-16,81.6,70.5,58.6,65.5,62.1,56.6,94,76,56,29.95,29.79,4,1,17,0.00
2013-5-17,80.7,75.2,70.3,73.3,69.0,65.7,89,81,69,29.90,29.83,3,0,11,0.00
2013-5-18,86.3,77.8,70.8,73.1,69.9,67.6,92,78,61,29.96,29.86,0,0,0,0.00
2013-5-19,88.0,77.8,70.8,72.1,69.8,68.1,93,78,56,29.93,29.83,0,0,0,0.00
2013-5-20,89.7,80.2,73.5,72.0,70.3,69.1,90,73,53,29.92,29.78,0,0,0,0.00
2013-5-21,88.8,80.5,72.3,72.0,69.6,67.0,91,71,52,29.87,29.69,0,0,0,0.05
2013-5-22,80.7,70.3,63.4,70.1,65.7,60.9,98,86,68,29.88,29.74,0,0,0,0.52
2013-5-23,88.4,74.5,63.2,77.2,67.7,62.3,100,82,48,29.97,29.86,2,0,10,0.01
2013-5-24,83.0,71.7,59.0,65.5,61.6,54.2,96,73,46,30.13,29.97,4,1,12,0.01
2013-5-25,82.0,67.0,53.1,64.6,56.0,51.3,95,71,39,30.19,30.06,3,0,11,0.00
2013-5-26,84.0,70.7,56.6,69.2,60.9,55.3,97,75,39,30.12,30.01,1,0,8,0.02
2013-5-27,86.5,73.7,59.9,69.6,64.9,58.5,99,76,51,30.06,29.91,5,1,19,0.00
2013-5-28,85.9,75.8,65.2,66.6,63.3,59.2,88,67,48,29.97,29.90,3,1,17,0.00
2013-5-29,87.2,76.0,64.5,71.7,67.8,58.9,94,77,57,29.97,29.85,4,1,17,0.00
2013-5-30,85.3,76.6,70.9,72.1,70.1,67.6,93,81,59,29.94,29.84,3,1,17,0.00
2013-5-31,88.8,79.6,72.1,75.2,71.5,68.3,90,77,61,29.94,29.82,3,1,17,0.00
2013-6-1,89.9,77.9,72.0,75.6,70.8,67.9,94,80,58,29.90,29.80,4,0,14,0.02
2013-6-2,82.2,73.2,66.3,71.4,68.5,65.1,100,86,65,29.91,29.80,6,1,20,1.23
2013-6-3,84.3,75.5,67.4,70.0,67.5,65.0,95,78,56,29.89,29.79,3,1,13,0.00
2013-6-4,89.3,76.9,64.2,76.3,69.7,63.3,98,80,57,29.88,29.78,2,0,10,0.00
2013-6-5,90.3,75.8,68.6,78.6,71.7,66.7,100,89,57,29.86,29.71,6,1,26,1.56
2013-6-6,86.7,72.9,67.9,82.8,71.1,66.9,100,95,66,29.78,29.68,4,1,21,0.24
2013-6-7,81.6,72.9,65.8,75.8,69.3,63.4,100,89,63,29.82,29.69,4,0,12,0.05
2013-6-8,84.1,73.6,61.3,72.9,66.1,60.2,100,79,56,29.91,29.82,2,0,10,0.03
2013-6-9,86.1,76.4,67.8,74.4,70.7,66.3,100,83,66,29.90,29.78,4,1,14,0.01
2013-6-10,90.3,78.9,68.3,73.2,70.0,66.7,95,76,50,29.91,29.85,3,1,12,0.00
2013-6-11,92.5,80.5,69.8,77.7,73.1,68.9,100,80,56,30.00,29.90,3,1,12,0.00
2013-6-12,73.9,72.8,71.8,71.4,70.9,70.3,95,94,92,29.96,29.93,0,0,0,0.00
2013-6-13,92.5,65.4,69.4,78.3,34.2,-99.9,100,66,57,29.95,29.78,5,2,13,0.00
2013-6-14,86.3,46.9,69.8,75.8,-5.9,-99.9,94,61,47,29.91,29.80,4,1,11,0.10
2013-6-15,89.7,27.5,61.2,69.8,-41.3,-99.9,97,52,49,29.97,29.88,2,0,12,0.00
2013-6-16,91.0,12.3,75.3,73.1,-85.5,-99.9,95,24,55,29.99,29.89,3,0,7,0.00
2013-6-17,88.2,32.4,70.4,84.9,-29.9,-99.9,100,65,58,29.92,29.80,3,1,10,0.08
2013-6-18,84.3,21.6,74.0,75.7,-56.7,-99.9,95,35,68,29.90,29.80,4,1,12,0.03
2013-6-19,88.4,27.9,74.7,76.3,-43.1,-99.9,75,29,55,29.96,29.85,2,0,10,0.00
2013-6-20,90.1,31.3,67.4,71.5,-36.3,-99.9,100,43,49,30.05,29.94,2,0,8,0.00
2013-6-21,-200.0,0.0,200.0,-99.9,-99.9,-99.9,98,8,98,30.03,30.00,0,0,0,0.00
2013-7-11,88.2,74.8,66.6,72.9,68.0,65.1,97,81,56,29.97,29.85,5,0,18,0.00
2013-7-12,89.7,79.0,69.9,72.7,71.0,68.9,97,78,57,30.06,29.98,2,0,11,0.00
2013-7-13,88.0,78.4,69.6,72.6,70.2,68.6,97,78,55,30.13,30.05,6,1,16,0.00
2013-7-14,92.7,80.5,70.8,74.4,70.9,69.3,96,75,48,30.12,30.02,2,0,12,0.00
2013-7-15,90.3,75.1,68.9,75.1,70.8,68.0,100,88,55,30.00,29.93,3,0,12,0.45
2013-7-16,91.8,79.8,69.8,75.4,71.8,68.9,97,79,49,29.93,29.86,1,0,8,0.00
2013-7-17,91.8,79.5,71.1,74.8,70.8,68.8,94,77,48,29.89,29.79,3,0,17,0.02
2013-7-18,90.3,80.2,75.4,76.6,71.6,69.9,85,76,54,29.90,29.84,5,2,17,0.04
2013-7-19,91.6,82.8,76.5,75.1,73.4,71.9,92,75,56,29.89,29.83,5,2,17,0.00
2013-7-20,90.3,81.1,75.1,75.6,73.0,70.8,91,77,59,29.86,29.77,4,0,13,0.00
2013-7-21,85.1,74.0,68.6,76.5,71.2,68.6,100,92,64,29.86,29.79,1,0,10,0.49
2013-7-22,89.5,75.5,63.9,69.3,65.8,62.4,95,75,48,29.96,29.92,2,0,13,0.00
2013-7-23,87.4,77.7,71.3,73.4,69.9,65.7,95,79,49,29.94,29.83,2,0,13,0.44
2013-7-24,80.3,73.7,68.1,74.8,69.8,66.9,98,88,71,29.85,29.79,2,0,10,0.02
2013-7-25,90.5,79.5,69.1,75.7,71.4,67.9,96,78,55,29.96,29.87,1,0,8,0.00
2013-7-26,92.9,80.7,70.9,76.2,71.6,69.3,96,77,48,30.02,29.97,1,0,10,0.00
2013-7-27,95.1,83.2,74.9,76.5,74.4,70.4,96,77,45,30.00,29.94,1,0,10,0.00
2013-7-28,91.0,81.5,73.5,72.9,70.9,67.4,93,73,50,29.94,29.84,2,0,10,0.00
2013-7-29,94.7,81.5,69.8,76.9,72.1,68.6,96,76,50,29.89,29.82,3,1,13,0.00
2013-7-30,95.4,82.4,73.5,77.4,73.5,71.5,97,77,47,29.90,29.85,2,0,13,0.00
2013-7-31,92.7,80.5,73.2,80.3,75.2,72.6,98,85,57,29.95,29.91,2,0,11,0.14
2013-8-1,94.7,82.4,72.5,76.4,72.5,71.2,96,75,50,29.95,29.89,3,1,13,0.00
2013-8-2,95.4,82.9,74.2,77.4,74.5,71.8,98,78,47,29.89,29.82,4,1,12,0.03
2013-8-3,95.4,83.1,72.8,78.1,73.2,71.0,94,74,51,29.85,29.80,6,1,16,0.00
2013-8-4,97.5,84.8,75.6,77.9,74.5,72.4,92,74,45,29.84,29.76,2,0,11,0.00
2013-8-5,97.8,87.1,77.7,77.0,74.5,70.8,90,69,42,29.87,29.77,2,0,11,0.00
2013-8-6,95.6,77.5,73.2,78.0,73.8,72.3,100,90,50,29.95,29.84,2,0,16,1.06
2013-8-7,91.2,81.7,73.9,75.4,73.9,72.4,95,79,57,29.99,29.92,2,0,12,0.00
2013-8-21,90.5,77.3,70.6,75.4,72.2,70.0,98,85,59,30.06,29.95,2,0,17,0.00
2013-8-22,87.4,77.4,68.8,73.1,70.9,67.6,96,82,60,30.12,30.05,4,1,13,0.00
2013-8-23,87.8,73.0,60.9,68.4,64.3,59.5,95,77,49,30.10,30.02,2,0,12,0.01
2013-8-24,87.6,72.8,60.4,68.8,63.7,59.0,95,77,46,30.01,29.95,1,0,8,0.00
2013-8-25,88.4,75.2,64.7,71.5,66.3,63.5,96,77,45,29.98,29.93,1,0,10,0.00
2013-8-26,92.5,78.5,67.8,76.1,69.4,66.3,95,77,44,29.94,29.89,1,0,7,0.00
2013-8-27,94.0,79.8,69.3,76.5,70.6,67.8,95,77,44,29.89,29.81,1,0,7,0.00
2013-8-28,95.1,80.5,70.1,77.4,72.0,68.6,95,78,46,29.81,29.76,2,0,8,0.00
2013-8-29,95.6,80.6,69.8,75.2,70.2,68.1,95,75,41,29.80,29.74,2,0,11,0.00
2013-8-30,92.5,79.2,71.1,73.5,71.0,69.5,95,78,50,29.83,29.76,2,0,14,0.00
2013-8-31,93.6,79.6,69.4,75.3,72.0,67.9,95,80,50,29.89,29.79,3,0,14,0.02
2013-9-1,95.6,80.2,70.3,72.0,67.9,64.7,95,71,37,29.97,29.88,1,0,11,0.00
2013-9-2,96.8,82.4,70.3,74.0,69.9,63.9,94,70,35,30.00,29.92,1,0,7,0.00
2013-9-3,95.1,78.9,67.6,74.0,68.5,65.6,94,74,40,29.96,29.89,1,0,8,0.00
2013-9-4,94.3,77.8,65.5,69.1,65.8,61.4,95,72,34,29.92,29.86,2,0,12,0.00
2013-9-5,96.1,79.2,66.6,71.8,67.6,64.0,94,72,35,29.90,29.83,2,0,8,0.00
2013-9-6,96.3,81.0,69.8,73.6,68.6,65.1,93,70,37,29.98,29.87,2,0,10,0.00
2013-9-7,95.9,79.1,69.1,73.9,70.8,67.9,96,80,41,30.02,29.93,3,0,13,0.62
2013-9-8,93.4,79.4,68.4,72.2,68.3,63.8,93,72,39,30.00,29.94,1,0,10,0.00
2013-9-21,76.7,70.9,62.4,73.3,66.9,58.5,100,87,72,29.76,29.69,2,1,11,0.00
2013-9-22,79.9,65.4,54.1,60.3,55.8,52.7,96,75,42,29.81,29.72,5,1,12,0.01
2013-9-23,87.0,69.0,51.7,71.4,61.8,50.6,97,80,48,29.81,29.74,2,0,11,0.01
2013-9-24,76.8,73.0,67.8,74.9,72.0,67.5,100,97,92,29.78,29.68,5,0,14,1.13
2013-9-25,85.5,73.7,64.0,80.8,68.5,61.9,100,86,49,29.75,29.69,3,0,14,0.01
2013-9-26,86.7,71.4,58.3,71.6,63.9,57.7,100,80,44,29.88,29.74,1,0,11,0.00
2013-9-27,84.9,72.1,63.9,77.6,66.7,62.8,100,85,53,29.97,29.87,3,0,11,0.01
2013-9-28,83.8,69.9,59.8,66.9,62.0,59.2,100,79,48,30.02,29.93,1,0,11,0.01
2013-9-29,72.1,67.5,61.2,68.0,64.1,59.8,98,89,78,29.98,29.87,0,0,6,0.03
2013-9-30,81.4,72.4,65.8,72.8,68.8,65.8,100,89,72,29.89,29.81,3,0,12,0.00
2013-10-1,85.3,73.5,65.0,74.3,68.9,65.0,100,87,59,29.98,29.88,2,0,10,0.00
2013-10-2,84.0,74.3,69.3,75.7,70.5,67.5,100,89,61,30.00,29.89,2,0,11,0.12
2013-10-3,86.7,74.1,66.6,76.8,70.8,66.3,100,91,58,29.96,29.86,2,0,8,0.00
2013-10-4,87.8,75.9,69.4,77.4,72.7,69.0,100,91,56,29.96,29.88,2,0,11,0.01
2013-10-5,87.8,77.2,69.1,77.7,71.6,68.2,100,84,56,29.94,29.81,2,0,12,0.00
2013-10-6,73.9,66.9,54.2,72.3,62.6,51.9,100,87,61,29.90,29.79,3,1,16,0.29
2013-10-7,73.0,59.8,48.0,55.4,51.5,46.9,98,77,49,29.99,29.89,3,1,12,0.01
2013-10-8,76.3,59.7,46.1,58.3,51.5,45.0,97,78,45,30.00,29.92,2,0,11,0.01
2013-10-9,76.7,62.3,49.9,70.7,59.1,48.8,100,90,67,30.04,29.95,2,0,10,0.00
2013-10-10,60.4,58.8,57.6,59.3,57.9,57.0,98,97,96,30.00,30.00,0,0,0,0.00
2013-10-11,83.6,68.0,57.6,79.6,64.3,57.3,100,90,54,29.98,29.88,2,0,11,0.01
2013-10-12,85.9,69.7,60.2,80.4,67.2,60.2,100,93,63,30.00,29.90,3,0,18,0.00
2013-10-13,83.6,72.3,64.2,78.2,68.2,64.2,100,88,61,30.11,29.99,2,0,11,0.01
2013-10-14,83.8,70.2,60.9,67.4,63.2,60.6,100,81,48,30.07,29.95,3,0,12,0.00
2013-10-15,81.4,70.5,60.7,68.9,64.8,59.8,99,84,57,29.98,29.85,3,0,16,0.01
2013-10-16,74.9,69.0,62.3,70.9,67.1,62.3,100,94,84,29.89,29.82,4,0,14,0.13
2013-10-17,62.4,62.3,62.1,62.4,62.3,62.1,100,100,100,29.87,29.85,0,0,5,0.04
2013-10-26,70.8,50.8,34.6,52.0,40.6,33.3,97,73,35,30.25,30.08,2,0,8,0.00
2013-10-27,68.4,55.4,43.2,59.3,52.3,42.1,99,90,66,30.08,29.96,1,0,7,0.62
2013-10-28,74.6,64.0,58.0,69.8,62.3,57.7,100,95,76,30.10,30.00,1,0,7,0.03
2013-10-29,78.5,66.2,57.0,75.1,63.0,57.0,100,91,59,30.16,30.06,2,0,11,0.00
2013-10-30,77.6,67.8,59.0,70.6,63.9,58.9,100,88,68,30.12,29.93,3,0,13,0.01
2013-10-31,71.5,69.4,64.0,71.5,68.0,64.0,100,96,88,29.91,29.65,3,1,17,1.71
2013-11-1,73.2,61.5,49.1,64.2,54.9,47.4,100,82,42,29.84,29.75,3,0,12,0.01
2013-11-2,67.4,46.5,46.8,54.2,22.2,-99.9,100,65,43,30.12,29.84,5,1,18,0.00
2013-11-3,64.2,38.9,35.2,47.1,8.1,-99.9,98,60,45,30.21,30.06,5,1,17,0.00
2013-11-4,68.1,52.8,38.9,55.4,46.7,37.9,98,82,54,30.22,30.11,3,1,12,0.00
2013-11-5,76.3,62.1,51.6,58.9,53.6,49.4,94,75,54,30.18,30.04,5,1,19,0.00
2013-11-6,73.7,64.1,54.1,66.4,58.0,49.1,95,81,69,30.07,29.96,4,1,18,0.00
2013-11-7,60.9,50.1,37.5,53.6,42.0,34.8,95,76,47,30.29,30.08,5,2,19,0.00
2013-11-8,62.1,46.7,31.8,46.8,37.6,30.3,97,75,41,30.30,30.16,5,1,14,0.00
2013-11-9,58.1,50.6,43.3,50.9,46.3,41.7,95,86,65,30.21,30.11,1,0,5,0.00
2013-11-10,69.9,56.0,45.8,53.5,49.5,44.2,99,82,49,30.25,30.15,2,0,11,0.00
2013-11-11,74.6,54.7,40.2,55.7,46.7,39.2,99,79,40,30.20,30.07,1,0,6,0.00
2013-11-12,52.0,43.7,32.4,49.7,37.8,25.4,98,81,61,30.51,30.13,6,2,18,0.00
2013-11-13,53.9,36.9,26.9,31.5,23.6,17.2,90,63,24,30.56,30.38,5,1,14,0.00
2013-11-14,26.7,25.6,24.8,24.4,23.3,22.8,92,91,91,30.36,30.34,0,0,0,0.00
2013-11-24,47.0,37.2,29.4,30.1,23.2,19.7,77,58,34,30.46,30.30,6,2,19,0.00
2013-11-25,41.9,37.4,34.7,40.2,26.7,-99.9,95,74,55,30.29,29.95,3,1,11,2.15
2013-11-26,43.9,35.3,36.5,43.4,22.4,-99.9,100,88,95,30.00,29.74,5,3,17,0.53
2013-11-27,39.2,33.1,24.5,34.0,22.3,-99.9,94,70,49,30.35,30.01,6,3,20,0.01
2013-11-28,50.2,31.7,19.1,30.2,22.8,16.7,93,74,32,30.43,30.34,2,0,8,0.00
2013-11-29,59.2,36.4,21.1,35.0,25.5,18.9,95,72,27,30.49,30.36,2,0,7,0.00
2013-11-30,63.7,40.4,23.9,39.3,28.8,21.9,96,71,23,30.40,30.19,3,0,11,0.01
2013-12-1,61.8,48.6,32.7,49.8,41.0,30.6,94,77,49,30.19,29.89,0,0,6,0.00
2013-12-2,69.9,58.2,51.4,59.6,52.9,48.6,96,83,68,29.89,29.63,3,0,12,0.00
2013-12-3,76.3,63.6,52.9,67.5,59.7,51.8,100,88,58,29.67,29.57,6,1,19,0.00
2013-12-4,78.8,69.7,64.3,67.7,64.1,61.0,96,84,61,29.81,29.67,8,2,19,0.00
2013-12-5,80.5,65.4,45.8,70.7,61.5,44.4,99,88,64,29.93,29.77,6,2,18,0.00
2013-12-6,45.2,40.1,32.7,43.9,39.0,31.4,98,96,94,30.25,29.90,4,2,18,0.28
2013-12-7,34.0,32.4,30.7,31.2,30.0,28.9,96,91,87,30.37,30.21,5,2,16,0.00
2013-12-8,41.2,33.4,33.7,41.2,22.1,-99.9,100,87,92,30.21,30.01,1,0,5,0.30
2013-12-9,-200.0,0.0,200.0,-99.9,-99.9,-99.9,0,0,100,30.13,30.03,0,0,0,0.00
2013-12-10,-200.0,0.0,200.0,-99.9,-99.9,-99.9,0,0,100,30.35,30.10,2,0,8,0.00
2013-12-11,55.4,26.5,22.7,35.4,-17.6,-99.9,96,43,38,30.42,30.29,2,0,11,0.24
2013-12-12,33.4,21.7,31.6,29.4,-14.2,-99.9,86,57,85,30.45,30.42,0,0,5,0.00
2013-12-13,53.3,21.4,23.6,35.2,-21.7,-99.9,92,46,42,30.33,29.83,3,0,12,0.05
2013-12-14,-200.0,0.0,200.0,-99.9,-99.9,-99.9,0,0,100,29.83,29.73,0,0,0,0.00